Location: Dealu Mare
(46.0500°N, 22.8167°E)
Time: 22:44:26
(UTC+00:00)

Meteor 2-13 Rocket - Pass Details

Date: 15 January 2026
Orbit: 935 x 958 km, 82.5° (Epoch: 10 February)

Event Time Altitude Azimuth Distance (km) Brightness Sun altitude
Rises 03:58:19 0° 349° (N) 3,637 7.3 -21.8°
Reaches altitude 10° 04:00:49 10° 348° (NNW) 2,685 6.6 -21.4°
Maximum altitude 04:06:56 76° 265° (W) 979 4.3 -20.3°
Drops below altitude 10° 04:12:59 10° 180° (S) 2,650 6.9 -19.3°
Sets 04:15:27 0° 179° (S) 3,588 7.6 -18.9°
